Location: Vancouver
(49.2500°N, 123.1330°W)
Time: 01:55:53
(UTC-08:00)

Daily predictions for brighter satellites

Satellite Brightness Start Highest point End
(mag) Time Altitude Azimuth Time Altitude Azimuth Time Altitude Azimuth
CZ-2D R/B 4.3 02:36:11 10° NNE 02:38:03 22° NNE 02:38:03 22° NNE
Cosmos 2369 Rocket 3.5 03:08:20 36° NE 03:08:20 36° NE 03:11:44 10° NE
Cosmos 2278 Rocket 4.4 03:09:50 16° N 03:09:50 16° N 03:11:47 10° N
ATLAS 5 CENTAUR R/B 3.1 03:33:02 39° ENE 03:33:02 39° ENE 03:36:31 10° NE
Cosmos 1943 Rocket 2.8 03:38:13 50° E 03:38:13 50° E 03:43:02 10° NE
ADEOS II 3.4 03:36:46 10° NNE 03:41:36 35° E 03:43:03 30° SE
Lacrosse 5 2.9 03:43:57 43° E 03:43:57 43° E 03:47:34 10° ENE
Okean O Rocket 3.2 03:38:38 10° NNE 03:41:26 32° NE 03:41:26 32° NE
CZ-4C R/B 3.5 03:45:55 29° SE 03:46:57 31° ESE 03:52:05 10° NE
CZ-4B R/B 3.9 03:53:12 10° NNE 03:58:42 53° E 04:00:43 36° SSE
Cosmos 2263 4.3 04:01:48 68° N 04:01:48 68° N 04:06:49 10° NNE
PSLV R/B 4.4 04:01:31 10° NNE 04:05:21 46° E 04:05:21 46° E
Resurs 1-4 Rocket 3.8 04:04:40 10° N 04:06:57 21° NNW 04:06:57 21° NNW
Cosmos 1867 4.2 04:11:03 45° NNW 04:11:03 45° NNW 04:15:44 10° NNE
Cosmos 1624 Rocket 4.2 04:13:37 59° NNW 04:13:37 59° NNW 04:18:14 10° NNE
Lacrosse 5 rocket 2.7 04:16:00 32° E 04:16:00 32° E 04:18:10 10° ESE
Cosmos 2056 Rocket 3.7 04:15:45 60° NNW 04:15:45 60° NNW 04:20:19 10° NNE
ADEOS Rocket 3.5 04:09:52 10° N 04:15:47 44° NW 04:15:47 44° NW
Cosmos 1782 Rocket 3.9 04:12:43 10° N 04:17:11 65° ENE 04:18:03 52° SE
MOS 1-B 4.4 04:14:04 10° N 04:19:33 58° WNW 04:19:33 58° WNW
CZ-2D R/B 3.8 04:16:56 10° N 04:19:23 21° NNW 04:19:23 21° NNW
Nadezhda 2 Rocket 4.3 04:15:29 10° NNW 04:21:35 73° W 04:24:34 32° S
Cosmos 2297 Rocket 3.8 04:24:18 10° NNW 04:29:25 33° NE 04:34:29 10° ESE
USA 234 4.4 04:24:59 10° ENE 04:30:57 36° SE 04:35:49 15° SSW
IRS-1C Rocket 3.9 04:25:58 10° NNE 04:31:16 82° WNW 04:32:29 54° SSW
Cosmos 1656 Rocket 3.9 04:32:59 32° S 04:35:39 71° ESE 04:41:19 10° NNE
GEOS 3 Rocket 3.5 04:32:27 10° SSE 04:37:30 65° SW 04:38:22 55° W
Cosmos 1023 Rocket 4.4 04:33:28 10° NNW 04:38:41 65° WSW 04:43:53 10° S
Cosmos 1745 Rocket 4.2 04:34:02 10° N 04:40:12 69° ENE 04:46:18 10° SSE
Tiangong 1 3.5 04:43:31 16° SE 04:43:31 16° SE 04:44:30 10° ESE
Meteor 1-14 Rocket 4.1 04:37:36 10° NNW 04:43:25 74° W 04:49:04 10° S
Cosmos 972 4.4 04:43:33 52° SW 04:44:44 70° WNW 04:50:12 10° NNE
Okean-O 3.3 04:40:22 10° NNE 04:44:44 53° E 04:49:04 10° S
Cosmos 1417 Rocket 4.5 04:38:41 10° S 04:44:49 82° E 04:50:59 10° N
CZ-4B R/B 3.9 04:41:19 10° N 04:43:51 33° NNW 04:43:51 33° NNW
MOS 1 Rocket 3.8 04:41:05 10° N 04:46:17 47° WNW 04:46:41 46° W
PAYLOAD B 4.2 04:42:55 10° N 04:48:25 63° WNW 04:50:29 38° SW
Cosmos 2219 3.1 04:43:44 10° NW 04:49:20 61° WSW 04:54:52 10° S
Meteor 1-31 Rocket 3.3 04:45:50 10° NNE 04:49:41 57° E 04:52:49 14° S
CZ-4B DEB 4.2 04:44:25 10° N 04:49:56 66° WNW 04:52:27 33° SW
Cosmos 2227 Rocket 2.9 04:44:45 10° NNW 04:50:20 54° NE 04:55:53 10° SE
Cosmos 2369 Rocket 3.1 04:50:07 30° NW 04:50:33 30° NW 04:55:32 10° NNE
ATLAS 3B R/B 3.9 04:44:33 10° S 04:51:34 43° ESE 04:58:21 10° NE
Okean 2 Rocket 2.9 04:47:33 10° NNW 04:51:58 77° W 04:56:21 10° S
ERS-2 2.0 04:51:24 10° NNE 04:55:08 75° WNW 04:55:26 69° WSW
Cosmos 1703 Rocket 3.5 04:54:48 53° WSW 04:55:29 61° WNW 04:59:52 10° N
Meteor 2-10 Rocket 3.3 04:53:34 31° SSW 04:55:59 70° WNW 05:01:09 10° N
Cosmos 1452 Rocket 3.4 04:53:55 37° SW 04:56:02 71° WNW 05:01:21 10° NNE
Meteor 1-25 Rocket 4.2 04:52:39 10° NNW 04:58:31 77° W 05:04:20 10° S
Meteor 1-26 Rocket 4.1 04:55:09 23° SSW 04:58:45 67° WNW 05:04:19 10° N
Thor Agena Rocket 3.4 04:56:04 10° SSE 05:01:15 78° WSW 05:06:25 10° NNW
Cosmos 1741 Rocket 3.9 04:59:20 10° NNW 05:04:31 63° WSW 05:09:42 10° S
BREEZE-M DEB 4.4 05:05:47 58° WNW 05:06:22 80° N 05:10:58 10° E
RUBIN 8/PSLV 4.5 05:02:41 10° NNE 05:07:05 84° WNW 05:11:13 11° SSW
Cosmos 614 Rocket 4.1 05:05:28 10° NW 05:10:20 45° WSW 05:15:12 10° S
Cosmos 1140 Rocket 4.0 05:05:58 10° NW 05:10:43 36° WSW 05:15:27 10° SSW
SL-08 R/B 4.5 05:04:58 10° NNW 05:11:14 64° W 05:17:28 10° S
Cosmos 2151 Rocket 3.6 05:07:33 10° N 05:12:06 85° E 05:16:35 10° S
ATLAS 5 CENTAUR R/B 2.8 05:14:36 27° WNW 05:16:22 34° NNW 05:21:21 10° NE
Okean O Rocket 2.7 05:15:26 10° N 05:18:55 25° WNW 05:18:55 25° WNW
ADEOS II 2.6 05:16:30 10° N 05:21:21 38° WNW 05:24:01 23° WSW
Cosmos 1943 Rocket 3.0 05:19:45 26° W 05:21:39 32° NW 05:26:38 10° NNE
COSMO-SKYMED 1 2.5 05:20:02 10° SSE 05:24:23 84° WSW 05:28:45 10° NNW
Lacrosse 5 2.3 05:23:09 26° W 05:25:43 48° NNW 05:30:40 10° NE
Meteor 1-28 Rocket 3.3 05:23:49 10° SSE 05:27:32 76° ENE 05:31:19 10° N
Meteor 1-11 Rocket 4.1 05:22:39 10° N 05:28:39 75° ENE 05:34:31 10° SSE
Okean 1-7 3.4 05:28:25 19° SW 05:31:02 39° WNW 05:35:04 10° N
S3M 4.0 05:28:13 10° SSW 05:34:26 59° WNW 05:40:37 10° N
CZ-4C R/B 2.4 05:31:07 19° WSW 05:35:02 61° NW 05:41:18 10° NE
Meteor 1-10 Rocket 4.2 05:29:34 10° SSW 05:35:10 85° W 05:40:55 10° N
CZ-4B R/B 4.1 05:34:12 10° N 05:39:01 30° WNW 05:42:38 16° WSW
Cosmos 1553 Rocket 4.1 05:33:43 10° SSW 05:39:47 52° WNW 05:46:00 10° N
Feng Yun 1-1 Rocket 4.5 05:36:12 10° N 05:41:59 59° WNW 05:47:47 10° SW
USA 81 4.0 05:37:10 10° SSW 05:42:25 67° W 05:47:41 10° N
Cosmos 2221 Rocket 4.5 05:39:49 17° WSW 05:42:31 29° WNW 05:46:30 10° N
Radarsat Rocket 4.3 05:41:07 10° NNE 05:48:29 90° SW 05:54:55 10° SSW
Cosmos 1536 3.3 05:44:54 10° N 05:48:54 65° ENE 05:52:53 10° SSE
Abrixas 2.6 05:48:23 22° W 05:49:57 53° SSW 05:52:46 10° ESE
Cosmos 2082 3.7 05:47:34 10° NNW 05:53:12 66° WSW 05:58:46 10° SSE
Lacrosse 5 rocket 2.0 05:51:44 18° W 05:53:39 28° SW 05:56:46 10° SSE
Cosmos 1606 2.9 05:51:04 10° SSW 05:54:50 48° WNW 05:58:40 10° N
Cosmos 1602 3.8 05:52:46 10° NNW 05:56:41 58° W 06:00:33 10° S
COSMOS 2455 4.1 05:51:33 10° S 05:57:14 45° ESE 06:02:56 10° NE
Cosmos 1300 Rocket 3.5 05:54:16 10° NNW 05:58:40 64° W 06:03:01 10° S
Ariane Rocket 3.3 05:54:37 10° NNE 05:59:44 72° ESE 06:04:48 10° S
BREEZE M DEB (TANK) 3.6 05:49:19 13° W 06:00:29 87° N 06:04:20 10° E
Okean 3 4.0 06:01:00 10° S 06:05:16 66° E 06:09:35 10° NNE
Cosmos 1709 Rocket 4.0 06:00:43 10° NNW 06:06:44 60° W 06:12:45 10° S
Cosmos 2263 Rocket 4.4 06:03:08 10° N 06:07:20 21° NE 06:11:30 10° E
Cosmos 2074 Rocket 4.5 06:02:18 10° N 06:08:37 69° ENE 06:14:52 10° SSE
Meteor 1-27 Rocket 3.8 06:02:50 10° SSW 06:08:40 77° WNW 06:14:38 10° N
Cosmos 1633 3.2 06:07:27 10° NNW 06:10:46 34° W 06:14:02 10° SSW
SKYMED 2 4.4 06:08:51 10° SSW 06:12:38 29° W 06:16:26 10° NW
Cosmos 1782 3.8 06:10:15 10° SW 06:13:36 25° WNW 06:17:00 10° NNW
Cosmos 2297 Rocket 2.4 06:08:14 10° NW 06:13:43 52° WSW 06:19:10 10° S
Cosmos 2369 3.8 06:08:27 10° SSW 06:14:07 85° ESE 06:19:49 10° NNE
USA 234 3.3 06:07:50 10° NE 06:14:24 85° NNW 06:20:57 10° WSW
Cosmos 2184 Rocket 4.3 06:09:22 10° N 06:15:34 73° E 06:21:43 10° SSE
NOAA 6 4.5 06:12:05 10° N 06:16:54 40° WNW 06:21:39 10° SW
Tiangong 1 2.9 06:15:29 10° WSW 06:17:36 18° SSW 06:19:44 10° SE
CSL-04 Debris 4.4 06:13:34 10° NNE 06:19:00 78° ESE 06:24:23 10° SSW
Okean-O 3.9 06:17:35 10° NNW 06:20:53 21° WNW 06:24:11 10° WSW
Cosmos 1378 Rocket 3.5 06:17:09 10° S 06:21:30 83° W 06:25:52 10° N
Cosmos 1674 Rocket 3.9 06:17:38 10° SSW 06:21:53 46° WNW 06:26:13 10° N
Cosmos 1486 Rocket 4.1 06:16:54 10° NNW 06:22:05 59° WSW 06:27:11 10° S
Meteor 1-31 Rocket 4.4 06:21:22 10° NNW 06:23:45 16° WNW 06:26:06 10° W
USA 238 DEB 3.9 06:17:29 10° SW 06:24:30 86° SE 06:31:36 10° NE
USA 238 3.9 06:17:34 10° SW 06:24:36 86° SE 06:31:41 10° NE
Cosmos 1331 Rocket 4.0 06:20:22 10° SSW 06:25:32 69° WNW 06:30:48 10° NNE
